Flag for U.S.A. Weather past 2 weeks in Chinle, Arizona, U.S.A.

Now
75 °F

Passing clouds.


Feels Like: 75 °F
Forecast: 49 / 79 °F
Wind: 9 mph from Northwest

Location: Window Rock Airport

Current Time: May 28, 2015 at 7:25:17 PM

Latest Report: May 28, 2015 at 6:53 PM


Visibility: 10 mi

Pressure: 29.85 "Hg

Humidity: 12%

Dew point: 20 °F

Location of ChinleLocation

Historic Weather in Chinle — Graph

°F

Chinle temperature yesterday

Maximum temperature yesterday: 74 °F (at 12:53 PM)
Minimum temperature yesterday: 45 °F (at 5:53 AM)
Average temperature yesterday: 61 °F

Past Weeks' High & Low Weather Summary

 TemperatureHumidityPressure
High77 °F (May 28, 2:53 PM)97% (May 26, 6:53 AM)30.06 "Hg (May 26, 6:53 AM)
Low32 °F (May 23, 5:53 AM)10% (May 20, 1:53 PM)29.61 "Hg (May 14, 5:53 PM)
Average53 °F50%29.85 "Hg
* Reported May 13 5:53 PM — May 28 5:53 PM, Chinle, Weather by CustomWeather, © 2015

Note: Actual official high and low records may vary slightly from our data, if they occured in-between our weather recording intervals... More about our weather records

Advertising

Chinle weather history for previous 24 hours

 ConditionsComfort  
Time TempWeatherWind HumidityBarometerVisibility
5:53 PM
Thu, May 28
77 °FScattered clouds.12 mph12%29.85 "Hg10 mi
4:53 PM75 °FScattered clouds.10 mph15%29.85 "Hg10 mi
3:53 PM77 °FPassing clouds.8 mph11%29.83 "Hg10 mi
2:53 PM77 °FSunny.8 mph14%29.83 "Hg10 mi
1:53 PM76 °FSunny.9 mph14%29.86 "Hg10 mi
12:53 PM75 °FPassing clouds.7 mph14%29.87 "Hg10 mi
11:53 AM73 °FPassing clouds.5 mph19%29.89 "Hg10 mi
10:53 AM70 °FSunny.8 mph21%29.88 "Hg10 mi
9:53 AM66 °FSunny.5 mph27%29.90 "Hg10 mi
8:53 AM60 °FSunny.No wind38%29.91 "Hg10 mi
7:53 AM51 °FSunny.No wind50%29.93 "Hg10 mi
6:53 AM40 °FClear.No wind68%29.97 "Hg10 mi
5:53 AM38 °FClear.5 mph70%29.96 "Hg10 mi
4:53 AM42 °FClear.No wind62%29.93 "Hg10 mi
3:53 AM46 °FClear.No wind54%29.90 "Hg10 mi
2:53 AM50 °FClear.No wind44%29.88 "Hg10 mi
1:53 AM48 °FClear.No wind50%29.89 "Hg10 mi
12:53 AM50 °FClear.5 mph43%29.89 "Hg10 mi
11:53 PM
Wed, May 27
50 °FClear.No wind43%29.89 "Hg10 mi
10:53 PM55 °FClear.3 mph35%29.88 "Hg10 mi
9:53 PM57 °FClear.No wind33%29.87 "Hg10 mi
8:53 PM63 °FSunny.No wind23%29.85 "Hg10 mi
7:53 PM68 °FSunny.8 mph17%29.86 "Hg10 mi
Weather by CustomWeather, © 2015

See weather overviewHow to use our weather pages